De Queen, AR

8:57 PM CST on January 28, 2020 (GMT -0600)
Helms Sevier County

Weather History for KDEQ - October, 2019

Change the Weather History Date:

Thursday, October 3, 2019

  Actual Average Record
Temperature  
Mean Temperature 81 °F 67 °F  
Max Temperature 93 °F 80 °F 95 °F (1963)
Min Temperature 68 °F 54 °F 34 °F (1975)
Degree Days  
Heating Degree Days 0 2  
Month to date heating degree days 0 6  
Since 1 July heating degree days 0 15  
Cooling Degree Days 16 4  
Month to date cooling degree days 45 12  
Year to date cooling degree days 2262 1877  
Growing Degree Days 31 (Base 50)    
Moisture  
Dew Point 69 °F    
Average Humidity 80    
Maximum Humidity 97    
Minimum Humidity 47    
Precipitation  
Precipitation 0.00 in 0.16 in 2.70 in (1902)
Month to date precipitation 0.00 0.48  
Year to date precipitation 42.09 35.68  
Snow  
Snow 0.00 in - - ()
Month to date snowfall 0.0  
Since 1 July snowfall 0.0  
Since 1 September snowfall 0.0  
Snow Depth 0.00 in    
Sea Level Pressure  
Sea Level Pressure 30.03 in    
Wind  
Wind Speed 1 mph ()    
Max Wind Speed 18 mph    
Max Gust Speed 25 mph    
Visibility 6.0 miles    
Events Fog , Thunderstorm    
T = Trace of Precipitation, MM = Missing Value Source: Averaged Metar Reports

Daily Weather History Graph

Daily Weather History Graph

Search for Another Location

Airport or City:

Astronomy

Oct. 03, 2019 Rise Set
Actual Time 7:13 AM CDT 6:59 PM CDT
Civil Twilight 6:48 AM CDT 7:24 PM CDT
Nautical Twilight 6:19 AM CDT 7:53 PM CDT
Astronomical Twilight 5:50 AM CDT 8:22 PM CDT
Moon 12:32 PM CDT (10/3) 10:52 PM CDT (10/3)
Length of Visible Light 12h 35m
Length of Day
11h 45m
Waxing Crescent, 30% of the Moon is Illuminated
Oct 3
Waxing Crescent
Oct 5
First Quarter
Oct 13
Full
Oct 21
Last Quarter
Oct 27
New

Hourly Weather History & Observations

Time (CDT) Temp. Heat Index Dew Point Humidity Pressure Visibility Wind Dir Wind Speed Gust Speed Precip Events Conditions
12:38 AM 71.1 °F - 69.1 °F 93% 29.98 in 1.8 mi Calm Calm - N/A   Clear
12:47 AM 71.6 °F - 69.8 °F 94% 29.97 in 3.0 mi Calm Calm - N/A   Clear
12:48 AM 72.0 °F - 69.1 °F 91% 29.96 in 3.0 mi Calm Calm - N/A   Clear
1:53 AM 71.1 °F - 68.0 °F 90% 29.97 in 6.0 mi Calm Calm - N/A   Clear
2:53 AM 70.0 °F - 68.0 °F 93% 29.97 in 4.0 mi Calm Calm - N/A   Clear
3:53 AM 70.0 °F - 66.9 °F 90% 29.98 in 5.0 mi Calm Calm - N/A   Clear
4:53 AM 68.0 °F - 66.0 °F 93% 29.99 in 4.0 mi Calm Calm - N/A   Clear
5:53 AM 69.1 °F - 66.0 °F 90% 30.01 in 3.0 mi Calm Calm - N/A   Clear
6:07 AM 68.0 °F - 66.0 °F 93% 30.03 in 1.2 mi Calm Calm - N/A   Clear
6:20 AM 69.1 °F - 66.9 °F 93% 30.03 in 3.0 mi Calm Calm - N/A   Clear
6:30 AM 68.0 °F - 66.0 °F 93% 30.03 in 1.8 mi Calm Calm - N/A   Clear
6:42 AM 69.1 °F - 66.0 °F 90% 30.03 in 0.5 mi Calm Calm - N/A Fog Fog
6:53 AM 68.0 °F - 66.0 °F 93% 30.02 in 2.0 mi Calm Calm - N/A   Clear
7:06 AM 69.1 °F - 66.0 °F 90% 30.04 in 5.0 mi Calm Calm - N/A   Clear
7:19 AM 69.1 °F - 66.0 °F 90% 30.05 in 1.0 mi Calm Calm - N/A   Clear
7:31 AM 69.1 °F - 66.0 °F 90% 30.05 in 2.5 mi Calm Calm - N/A   Clear
7:50 AM 69.8 °F - 66.2 °F 88% 30.05 in 1.8 mi Calm Calm - N/A   Clear
7:53 AM 70.0 °F - 66.9 °F 90% 30.04 in 2.5 mi Calm Calm - N/A   Clear
8:01 AM 71.1 °F - 68.0 °F 90% 30.06 in 4.0 mi Calm Calm - N/A   Clear
8:53 AM 75.9 °F - 70.0 °F 82% 30.06 in 6.0 mi Calm Calm - N/A   Haze
9:53 AM 84.0 °F 89.0 °F 71.1 °F 65% 30.06 in 10.0 mi Calm Calm - N/A   Scattered Clouds
10:53 AM 88.0 °F 94.7 °F 72.0 °F 59% 30.06 in 10.0 mi WSW 5.8 mph - N/A   Clear
11:53 AM 90.0 °F 95.4 °F 70.0 °F 52% 30.06 in 10.0 mi West 8.1 mph - N/A   Clear
12:53 PM 91.9 °F 97.4 °F 70.0 °F 48% 30.05 in 10.0 mi WNW 4.6 mph - N/A   Clear
1:53 PM 91.9 °F 96.9 °F 69.1 °F 47% 30.03 in 10.0 mi North 4.6 mph - N/A   Partly Cloudy
2:53 PM 91.0 °F 95.2 °F 68.0 °F 47% 30.00 in 10.0 mi NNW 4.6 mph - N/A   Partly Cloudy
3:53 PM 91.0 °F 95.2 °F 68.0 °F 47% 30.00 in 10.0 mi WSW 5.8 mph - N/A   Scattered Clouds
4:34 PM 81.0 °F 84.4 °F 70.0 °F 69% 30.03 in 10.0 mi SSW 12.7 mph 20.7 mph N/A Thunderstorm Mostly Cloudy
4:49 PM 80.6 °F 84.6 °F 71.6 °F 74% 30.02 in 10.0 mi Variable 4.6 mph - N/A   Mostly Cloudy
4:53 PM 80.1 °F 83.6 °F 71.1 °F 74% 30.00 in 10.0 mi West 3.5 mph - N/A   Mostly Cloudy
5:53 PM 80.1 °F 83.6 °F 71.1 °F 74% 30.00 in 10.0 mi Calm Calm - N/A   Clear
6:53 PM 79.0 °F - 72.0 °F 79% 30.01 in 10.0 mi Calm Calm - N/A   Clear
7:53 PM 77.0 °F - 72.0 °F 84% 30.03 in 10.0 mi Calm Calm - N/A   Clear
8:53 PM 75.9 °F - 72.0 °F 87% 30.06 in 8.0 mi Calm Calm - N/A   Clear
9:53 PM 75.9 °F - 72.0 °F 87% 30.07 in 8.0 mi Calm Calm - N/A   Clear
10:53 PM 78.1 °F - 71.1 °F 79% 30.09 in 9.0 mi SSE 5.8 mph - N/A   Mostly Cloudy
11:53 PM 75.0 °F - 72.0 °F 90% 30.08 in 6.0 mi Calm Calm - N/A   Clear